* Astronomy

Members Login
Username 
 
Password 
    Remember Me  
Post Info TOPIC: Chang Zheng-2F RB re-entry


L

Posts: 131433
Date:
Chang Zheng-2F RB re-entry
Permalink  
 


The Chang Zheng-2F rocket body that was launched on the 29th September, 2011, from the Jiuquan lauinch site, for the Tiangong 1 mission re-entered the Earths atmosphere on the 10th October, 2011 @ 10:27 GMT  ± 1 minute.

CZ2F RB 
1 37821U 11053B   11282.92403007  .05557599  88862-5  33255-3 0   400
2 37821 042.7769 130.5792 0027967 215.1586 144.6430 16.38660648  1689

Period:       87.88 minutes
Inclination: 42.78°
Apogee:     188 km
Perigee:     151 km
Revolution Number: 176
Predicted Location:  16°N, 144°E



__________________
Page 1 of 1  sorted by
 
Quick Reply

Please log in to post quick replies.



Create your own FREE Forum
Report Abuse
Powered by ActiveBoard